• In Schweiz
  • Länderverzeichnis
  • Für 7 Tage
  • Wassertemperatur
  • Satellitenkarten
  • Wetterkarte
  • Widgets
  • user-avatar
    Anmelden

    Stündliche Wetter Kaen-Saz

    Heute, 23 September, Sonntag

    Zeit Temperatur Niederschläge Wind Luftdruck Luftfeuchtigkeit
    00:00 +15°C° 0 mm 1 m/S 751 mmHg 94%
    01:00 +15°C° 0 mm 1 m/S 751 mmHg 94%
    02:00 +14°C° 0 mm 1 m/S 751 mmHg 94%
    03:00 +14°C° 0 mm 1 m/S 751 mmHg 94%
    04:00 +14°C° 0 mm 1 m/S 751 mmHg 94%
    05:00 +14°C° 0 mm 1 m/S 751 mmHg 94%
    06:00 +14°C° 0 mm 1 m/S 751 mmHg 94%
    07:00 +14°C° 0 mm 1 m/S 751 mmHg 94%
    08:00 +16°C° 0 mm 1 m/S 751 mmHg 89%
    09:00 +17°C° 0 mm 2 m/S 751 mmHg 84%
    10:00 +19°C° 0 mm 2 m/S 751 mmHg 79%
    11:00 +20°C° 0 mm 2 m/S 751 mmHg 75%
    12:00 +21°C° 0 mm 2 m/S 751 mmHg 70%
    13:00 +24°C° 0 mm 3 m/S 750 mmHg 66%
    14:00 +24°C° 0 mm 3 m/S 750 mmHg 66%
    15:00 +24°C° 0 mm 3 m/S 750 mmHg 65%
    16:00 +24°C° 0 mm 3 m/S 750 mmHg 65%
    17:00 +22°C° 0 mm 3 m/S 749 mmHg 71%
    18:00 +20°C° 0 mm 3 m/S 749 mmHg 77%
    19:00 +19°C° 0 mm 2 m/S 749 mmHg 83%
    20:00 +18°C° 0 mm 3 m/S 749 mmHg 85%
    21:00 +17°C° 0 mm 3 m/S 749 mmHg 87%
    22:00 +17°C° 0 mm 3 m/S 749 mmHg 89%
    23:00 +17°C° 0 mm 3 m/S 749 mmHg 89%

    Morgen, 24 September, Montag

    Zeit Temperatur Niederschläge Wind Luftdruck Luftfeuchtigkeit
    00:00 +16°C° 0 mm 3 m/S 748 mmHg 88%
    01:00 +16°C° 0 mm 3 m/S 748 mmHg 88%
    02:00 +16°C° 0 mm 3 m/S 748 mmHg 87%
    03:00 +14°C° 0 mm 3 m/S 748 mmHg 86%
    04:00 +14°C° 0 mm 4 m/S 747 mmHg 85%
    05:00 +14°C° 0 mm 4 m/S 747 mmHg 82%
    06:00 +13°C° 0 mm 4 m/S 747 mmHg 79%
    07:00 +13°C° 0 mm 4 m/S 747 mmHg 76%
    08:00 +15°C° 0 mm 5 m/S 747 mmHg 67%
    09:00 +16°C° 0 mm 6 m/S 746 mmHg 58%
    10:00 +19°C° 0 mm 6 m/S 746 mmHg 49%
    11:00 +20°C° 0 mm 7 m/S 746 mmHg 47%
    12:00 +21°C° 0 mm 7 m/S 746 mmHg 45%
    13:00 +22°C° 0 mm 7 m/S 746 mmHg 42%
    14:00 +21°C° 0 mm 6 m/S 746 mmHg 46%
    15:00 +21°C° 0 mm 5 m/S 746 mmHg 49%
    16:00 +21°C° 0 mm 4 m/S 745 mmHg 52%
    17:00 +19°C° 0 mm 4 m/S 746 mmHg 56%
    18:00 +18°C° 0 mm 4 m/S 746 mmHg 59%
    19:00 +16°C° 0 mm 3 m/S 746 mmHg 63%
    20:00 +16°C° 0 mm 3 m/S 746 mmHg 66%
    21:00 +15°C° 0 mm 2 m/S 746 mmHg 70%
    22:00 +15°C° 0 mm 2 m/S 746 mmHg 73%
    23:00 +15°C° 0 mm 2 m/S 746 mmHg 75%

    übermorgen, 25 September, Dienstag

    Zeit Temperatur Niederschläge Wind Luftdruck Luftfeuchtigkeit
    00:00 +14°C° 0 mm 2 m/S 746 mmHg 78%
    01:00 +14°C° 0 mm 2 m/S 746 mmHg 80%
    02:00 +14°C° 0 mm 2 m/S 746 mmHg 83%
    03:00 +14°C° 0 mm 2 m/S 746 mmHg 86%
    04:00 +13°C° 0 mm 2 m/S 746 mmHg 89%
    05:00 +13°C° 0 mm 2 m/S 746 mmHg 91%
    06:00 +13°C° 0 mm 2 m/S 746 mmHg 92%
    07:00 +11°C° 0 mm 3 m/S 745 mmHg 94%
    08:00 +12°C° 0 mm 3 m/S 745 mmHg 89%
    09:00 +12°C° 0 mm 4 m/S 745 mmHg 83%
    10:00 +13°C° 0 mm 5 m/S 746 mmHg 78%
    11:00 +14°C° 0 mm 5 m/S 745 mmHg 73%
    12:00 +15°C° 0 mm 5 m/S 745 mmHg 69%
    13:00 +15°C° 0 mm 5 m/S 745 mmHg 64%
    14:00 +16°C° 0 mm 5 m/S 745 mmHg 61%
    15:00 +16°C° 0 mm 6 m/S 745 mmHg 58%
    16:00 +16°C° 0 mm 6 m/S 745 mmHg 54%
    17:00 +16°C° 0 mm 6 m/S 744 mmHg 56%
    18:00 +15°C° 0 mm 5 m/S 744 mmHg 58%
    19:00 +14°C° 0 mm 5 m/S 744 mmHg 60%
    20:00 +14°C° 0.2 mm 5 m/S 744 mmHg 61%
    21:00 +14°C° 0.2 mm 6 m/S 743 mmHg 61%
    22:00 +14°C° 0.2 mm 6 m/S 743 mmHg 62%
    23:00 +14°C° 0.1 mm 6 m/S 743 mmHg 63%

    26 September, Mittwoch

    Zeit Temperatur Niederschläge Wind Luftdruck Luftfeuchtigkeit
    00:00 +14°C° 0.1 mm 6 m/S 743 mmHg 64%
    01:00 +14°C° 0.1 mm 6 m/S 744 mmHg 65%
    02:00 +13°C° 0.1 mm 6 m/S 744 mmHg 69%
    03:00 +12°C° 0.1 mm 5 m/S 744 mmHg 72%
    04:00 +12°C° 0.1 mm 5 m/S 745 mmHg 76%
    05:00 +11°C° 0 mm 4 m/S 745 mmHg 78%
    06:00 +10°C° 0 mm 4 m/S 746 mmHg 80%
    07:00 +8°C° 0 mm 4 m/S 746 mmHg 82%
    08:00 +9°C° 0 mm 5 m/S 747 mmHg 77%
    09:00 +10°C° 0 mm 6 m/S 747 mmHg 72%
    10:00 +11°C° 0 mm 6 m/S 748 mmHg 67%
    11:00 +11°C° 0.1 mm 6 m/S 748 mmHg 66%
    12:00 +10°C° 0.1 mm 6 m/S 748 mmHg 66%
    13:00 +10°C° 0.1 mm 6 m/S 749 mmHg 66%
    14:00 +10°C° 0 mm 5 m/S 749 mmHg 65%
    15:00 +10°C° 0 mm 5 m/S 749 mmHg 64%
    16:00 +10°C° 0 mm 5 m/S 750 mmHg 63%
    17:00 +10°C° 0 mm 5 m/S 750 mmHg 65%
    18:00 +10°C° 0 mm 4 m/S 750 mmHg 68%
    19:00 +10°C° 0 mm 3 m/S 751 mmHg 70%
    20:00 +9°C° 0 mm 3 m/S 751 mmHg 71%
    21:00 +9°C° 0 mm 3 m/S 751 mmHg 72%
    22:00 +8°C° 0 mm 3 m/S 751 mmHg 74%
    23:00 +8°C° 0 mm 3 m/S 752 mmHg 76%

    27 September, Donnerstag

    Zeit Temperatur Niederschläge Wind Luftdruck Luftfeuchtigkeit
    00:00 +7°C° 0 mm 3 m/S 752 mmHg 77%
    01:00 +7°C° 0 mm 3 m/S 752 mmHg 79%
    02:00 +5°C° 0 mm 3 m/S 752 mmHg 81%
    03:00 +5°C° 0 mm 3 m/S 752 mmHg 84%
    04:00 +4°C° 0 mm 3 m/S 752 mmHg 86%
    05:00 +4°C° 0 mm 3 m/S 752 mmHg 87%
    06:00 +4°C° 0 mm 3 m/S 752 mmHg 88%
    07:00 +4°C° 0 mm 3 m/S 752 mmHg 90%
    08:00 +5°C° 0 mm 4 m/S 752 mmHg 84%
    09:00 +6°C° 0 mm 4 m/S 752 mmHg 78%
    10:00 +8°C° 0 mm 5 m/S 752 mmHg 72%
    11:00 +8°C° 0 mm 5 m/S 751 mmHg 70%
    12:00 +8°C° 0 mm 4 m/S 751 mmHg 69%
    13:00 +8°C° 0 mm 4 m/S 750 mmHg 68%
    14:00 +8°C° 0 mm 5 m/S 750 mmHg 68%
    15:00 +8°C° 0 mm 5 m/S 750 mmHg 68%
    16:00 +9°C° 0 mm 5 m/S 750 mmHg 68%
    17:00 +8°C° 0 mm 5 m/S 749 mmHg 69%
    18:00 +8°C° 0 mm 5 m/S 748 mmHg 70%
    19:00 +7°C° 0 mm 4 m/S 748 mmHg 72%
    20:00 +7°C° 0 mm 4 m/S 747 mmHg 72%
    21:00 +6°C° 0 mm 5 m/S 747 mmHg 73%
    22:00 +6°C° 0 mm 5 m/S 746 mmHg 74%
    23:00 +6°C° 0 mm 5 m/S 746 mmHg 71%

    28 September, Freitag

    Zeit Temperatur Niederschläge Wind Luftdruck Luftfeuchtigkeit
    00:00 +5°C° 0 mm 6 m/S 745 mmHg 69%
    01:00 +5°C° 0 mm 6 m/S 744 mmHg 66%
    02:00 +5°C° 0.2 mm 7 m/S 743 mmHg 66%
    03:00 +5°C° 0.2 mm 7 m/S 743 mmHg 65%
    04:00 +5°C° 0.2 mm 8 m/S 742 mmHg 65%
    05:00 +5°C° 0.4 mm 8 m/S 741 mmHg 67%
    06:00 +5°C° 0.4 mm 9 m/S 740 mmHg 70%
    07:00 +5°C° 0.4 mm 9 m/S 739 mmHg 72%
    08:00 +5°C° 0.4 mm 10 m/S 739 mmHg 74%
    09:00 +5°C° 0.4 mm 10 m/S 738 mmHg 76%
    10:00 +5°C° 0.4 mm 10 m/S 738 mmHg 79%
    11:00 +6°C° 0.4 mm 10 m/S 738 mmHg 76%
    12:00 +6°C° 0.4 mm 10 m/S 738 mmHg 74%
    13:00 +7°C° 0.4 mm 10 m/S 738 mmHg 72%
    14:00 +7°C° 0.2 mm 10 m/S 739 mmHg 74%
    15:00 +6°C° 0.2 mm 10 m/S 739 mmHg 75%
    16:00 +6°C° 0.2 mm 10 m/S 739 mmHg 77%
    17:00 +6°C° 0 mm 9 m/S 740 mmHg 77%
    18:00 +5°C° 0 mm 8 m/S 741 mmHg 76%
    19:00 +5°C° 0 mm 8 m/S 742 mmHg 76%
    20:00 +5°C° 0 mm 7 m/S 743 mmHg 77%
    21:00 +4°C° 0 mm 7 m/S 743 mmHg 78%
    22:00 +4°C° 0 mm 7 m/S 744 mmHg 79%
    23:00 +4°C° 0 mm 7 m/S 744 mmHg 80%
    Mehr zeigen